Wind_Speed
12 12 12 11 12 12 12 12 12 12 12 12 13 13 12 12 12 11 11 11 11 12 13 13 13 13 13 13 13 14 14 15 15 16 16 17 18 19 19 20 20 21 22
13 13 13 12 12 12 12 12 13 13 13 13 13 13 13 12 11 11 11 11 11 12 13 13 13 13 14 14 14 14 15 15 15 15 16 17 18 19 19 20 21 22 23
14 13 13 13 13 13 13 13 13 13 13 13 13 13 13 12 12 13 13 13 13 13 13 14 14 14 15 15 15 15 15 15 16 16 17 18 19 20 21 22 22 22 23
14 14 14 14 14 14 14 13 13 13 13 13 14 13 13 13 13 14 14 14 14 14 14 15 15 15 15 16 16 17 17 17 18 19 19 19 20 21 22 23 24 24 25
16 16 16 16 16 15 15 15 14 14 14 14 14 14 14 13 13 14 15 15 15 15 15 15 15 15 16 17 18 19 19 20 20 20 21 21 22 23 23 24 24 25 25
18 18 18 17 16 16 16 16 15 15 14 14 13 14 14 14 15 15 15 15 16 16 16 16 16 17 17 18 19 20 21 21 21 22 23 23 24 24 25 25 25 26 27
18 18 17 17 17 17 17 17 16 15 15 14 14 15 15 15 15 15 16 16 16 16 17 17 18 18 19 19 20 21 22 23 23 24 24 24 25 25 26 26 27 27 27
17 17 17 17 17 16 16 16 16 15 15 15 16 16 16 16 16 16 17 17 17 17 17 18 19 19 21 21 22 23 24 25 25 25 25 26 26 27 27 28 28 28 29
18 18 18 17 17 16 16 16 17 16 16 16 17 17 18 17 17 17 17 17 18 18 19 19 20 21 22 23 24 25 26 26 26 27 27 27 27 28 28 29 29 29 30
19 19 19 18 17 17 17 17 18 18 18 18 19 18 18 18 18 18 19 19 20 20 21 21 22 23 23 24 25 26 27 27 28 28 28 28 28 29 30 30 30 31 31
20 19 19 18 18 19 19 19 19 19 19 19 20 20 19 19 19 20 20 21 22 22 22 23 23 24 24 25 26 27 27 28 28 28 28 28 29 29 30 30 31 31 31
20 20 19 20 20 20 20 20 20 20 21 21 21 21 21 21 21 21 22 22 23 23 23 24 24 25 25 26 26 27 27 28 28 28 28 28 29 29 30 30 30 31 31
21 20 20 20 21 21 21 21 21 22 22 22 22 23 23 23 23 23 24 24 24 24 24 25 25 26 26 26 27 27 28 28 28 28 28 28 29 29 30 30 31 32 32
22 21 21 21 22 22 22 22 22 22 23 23 24 24 24 24 24 24 25 25 25 25 25 25 26 26 26 26 27 27 28 28 28 28 28 29 29 29 30 30 31 32 33
24 23 23 23 23 23 24 24 24 24 24 25 25 25 25 25 25 25 25 26 26 26 26 26 26 26 27 27 27 27 27 28 28 29 29 29 30 30 31 32 32 33 33
24 24 24 23 24 24 24 25 25 25 25 25 26 26 26 26 26 26 26 25 26 26 26 27 27 27 27 27 27 28 28 28 28 29 30 31 31 32 32 33 33 33 33
23 24 24 23 23 23 24 24 25 25 25 26 26 26 26 26 26 26 27 27 26 26 26 26 27 27 27 28 28 29 29 29 29 30 31 31 32 32 33 33 34 34 35
24 24 24 24 23 24 25 25 25 26 26 26 26 26 26 26 26 27 27 27 26 27 27 27 27 27 27 28 29 29 29 30 30 31 31 32 32 33 34 35 35 35 36
23 23 23 24 24 25 25 25 25 25 25 26 26 26 26 26 26 26 26 26 27 27 27 27 28 28 28 29 30 30 30 31 32 32 33 33 33 33 34 35 35 35 36
24 23 23 23 24 24 24 24 25 26 26 26 27 26 26 26 26 26 26 26 27 27 27 28 28 28 29 30 31 31 32 32 33 33 33 33 33 34 34 35 35 35 35
23 23 23 23 23 23 24 24 25 25 26 26 26 25 25 25 26 27 27 28 28 28 28 29 29 30 31 32 32 32 33 33 33 34 34 34 34 35 35 35 36 36 36
22 22 22 22 22 23 23 23 24 25 25 25 25 24 24 25 26 27 28 28 28 29 30 31 31 31 32 32 32 32 33 33 34 34 34 34 35 35 36 36 37 36 36
22 22 22 22 22 23 23 23 23 24 24 24 24 24 24 25 26 27 27 28 29 30 30 31 30 30 30 31 31 32 32 33 33 33 34 35 35 36 36 36 36 36 35
22 22 22 22 23 23 23 23 23 23 23 23 24 24 25 26 26 27 27 27 28 28 29 29 29 29 29 30 32 32 32 33 33 34 35 35 35 35 35 35 35 35 35
23 23 23 23 23 23 23 23 23 23 23 23 24 24 25 25 26 26 26 27 27 27 27 28 28 29 30 31 32 32 33 34 34 34 35 34 34 34 35 35 34 34 34
24 23 23 23 22 22 23 23 23 23 23 23 24 24 24 25 26 26 26 27 27 27 28 28 29 29 30 31 32 33 34 34 34 34 34 34 34 35 35 34 33 33 33
Wind_Direction
292 292 294 297 298 300 301 302 305 305 307 305 304 303 299 298 296 295 290 291 289 290 292 292 293 293 296 297 297 296 293 291 288 287 287 289 290 291 293 290 286 285 284
285 286 288 293 295 298 299 300 301 303 307 308 305 303 298 294 293 292 290 293 291 292 295 296 296 294 293 294 295 296 295 294 293 292 290 291 292 292 293 294 293 290 289
280 281 285 288 289 292 295 296 299 300 303 307 307 303 299 295 293 292 290 290 288 290 292 293 295 293 292 293 295 297 296 294 294 295 295 295 296 294 293 294 294 292 292
280 281 281 282 284 287 289 291 296 299 301 305 303 303 301 296 294 294 293 293 290 288 290 292 293 293 292 293 296 298 297 295 294 294 293 295 296 296 295 294 294 293 292
279 281 280 280 283 285 288 288 292 297 299 302 302 302 303 298 296 296 298 297 292 290 290 292 292 293 293 293 295 297 297 296 295 295 295 296 296 296 296 295 294 293 292
281 278 278 279 282 284 288 290 293 295 298 300 297 297 300 300 297 295 298 299 292 288 290 291 292 295 295 295 295 296 297 297 296 296 296 296 296 296 296 296 294 293 293
283 278 278 280 281 285 287 288 290 292 294 295 294 294 295 296 296 295 296 295 292 289 291 290 290 293 295 295 295 297 297 297 297 297 296 297 296 296 296 296 295 294 292
283 281 281 280 283 284 283 285 287 290 292 294 294 295 295 294 294 295 294 293 290 291 292 291 291 293 294 294 294 294 295 296 296 295 296 296 296 296 296 297 296 295 293
279 278 280 281 280 279 280 282 284 287 289 292 297 297 296 292 290 292 292 292 292 293 294 293 293 293 295 295 296 296 296 296 296 296 296 295 296 295 295 296 296 295 294
279 278 278 277 277 277 279 282 284 284 287 290 294 295 295 294 290 291 292 292 294 293 294 295 295 295 294 295 296 297 297 296 296 296 295 294 294 294 294 296 296 296 295
277 275 273 274 275 277 280 282 285 284 285 289 292 293 294 294 295 295 295 293 292 292 293 294 295 296 295 294 295 296 297 298 298 297 295 294 295 296 296 297 297 298 298
274 273 272 273 274 276 277 281 284 283 284 288 290 292 293 293 293 294 294 294 294 293 292 293 294 294 294 295 295 296 297 298 299 298 296 296 297 298 299 298 298 298 298
271 273 275 275 274 276 280 282 283 284 285 286 288 291 293 292 291 292 293 293 294 294 295 295 294 294 294 294 295 296 297 298 299 299 297 297 296 297 298 298 299 298 299
269 272 273 275 275 276 278 281 283 283 283 284 286 290 292 292 292 292 293 293 293 294 295 296 295 294 294 295 297 297 297 298 299 300 300 300 300 300 300 300 300 300 301
269 270 271 272 274 275 277 279 282 282 282 284 285 288 289 291 290 290 292 292 292 294 294 294 295 296 297 297 297 297 298 299 300 300 301 301 300 300 300 300 301 301 301
268 269 269 271 273 276 277 278 279 281 282 283 285 287 288 288 288 289 291 293 293 294 295 294 294 295 296 297 297 297 298 299 300 302 302 301 301 301 301 301 302 302 302
268 269 270 272 274 275 276 278 281 282 283 284 285 286 287 288 288 290 292 293 293 293 295 295 295 295 296 297 298 298 299 299 300 301 302 302 302 302 302 302 303 304 304
268 268 271 271 272 274 277 279 281 282 283 284 285 285 286 287 288 291 292 292 293 293 295 296 296 296 296 298 298 299 300 301 301 302 303 303 304 304 304 305 304 304 304
266 268 270 272 273 276 278 280 281 281 282 284 285 286 286 288 288 289 292 292 293 293 295 296 297 297 298 299 300 300 301 303 303 303 304 304 304 304 305 306 306 306 306
266 268 270 272 275 278 279 279 279 281 282 284 286 286 287 288 289 290 292 291 292 294 296 298 298 298 300 301 301 302 304 304 304 304 304 304 304 305 305 306 305 306 306
266 266 270 273 273 276 278 279 280 281 282 285 285 286 288 290 291 291 292 292 292 294 296 297 298 299 301 302 303 304 305 305 305 305 305 304 304 304 304 304 305 305 306
266 268 272 273 276 278 279 281 281 282 283 285 286 287 289 290 292 293 293 293 294 294 296 297 298 300 301 302 303 305 306 307 306 305 305 305 305 305 305 305 306 306 306
267 270 273 276 277 279 281 284 285 285 284 285 285 287 289 291 292 294 295 295 295 297 298 299 299 300 302 304 305 306 306 307 307 306 306 306 306 306 306 306 306 307 306
269 271 273 275 277 279 282 283 282 282 284 285 286 288 289 290 292 294 295 296 298 299 300 301 301 302 303 305 306 306 306 308 308 308 308 308 307 307 307 308 308 307 307
268 271 273 275 277 278 280 282 283 283 284 287 289 289 291 292 294 295 296 298 300 301 301 302 303 303 304 305 306 307 307 308 309 309 309 308 308 308 309 309 309 308 308
267 269 272 274 277 279 280 281 282 283 285 288 290 291 292 294 296 297 298 300 302 302 302 302 303 304 305 305 306 307 308 309 309 309 310 309 309 309 309 309 309 309 309
Height
5900 5899 5899 5898 5897 5896 5895 5893 5892 5891 5889 5888 5887 5886 5885 5884 5883 5882 5881 5881 5880 5879 5878 5877 5876 5875 5874 5873 5871 5870 5869 5868 5867 5866 5864 5863 5862 5861 5859 5858 5857 5855 5854
5898 5897 5896 5895 5894 5893 5892 5891 5890 5888 5887 5886 5885 5884 5882 5881 5880 5879 5879 5878 5877 5876 5875 5874 5873 5872 5871 5869 5868 5867 5865 5864 5863 5862 5860 5859 5858 5856 5855 5853 5851 5849 5848
5895 5894 5893 5892 5892 5891 5890 5888 5887 5886 5884 5883 5882 5880 5879 5878 5877 5877 5876 5875 5874 5873 5872 5871 5870 5868 5867 5866 5864 5863 5861 5860 5859 5858 5856 5855 5853 5852 5850 5848 5846 5844 5842
5891 5891 5890 5890 5889 5888 5887 5886 5884 5883 5881 5880 5879 5877 5876 5875 5874 5874 5873 5871 5870 5869 5868 5867 5866 5865 5863 5862 5861 5859 5858 5856 5854 5853 5852 5850 5848 5846 5844 5842 5841 5838 5836
5887 5887 5886 5886 5886 5885 5884 5883 5881 5879 5878 5877 5875 5874 5873 5872 5871 5870 5869 5868 5867 5865 5864 5863 5862 5861 5860 5858 5857 5855 5853 5852 5850 5848 5846 5845 5843 5841 5839 5836 5834 5832 5830
5883 5883 5883 5882 5882 5881 5880 5879 5878 5876 5875 5873 5872 5870 5869 5869 5868 5867 5866 5864 5862 5861 5860 5859 5858 5857 5855 5854 5852 5850 5849 5847 5845 5843 5841 5839 5837 5834 5832 5830 5827 5825 5823
5880 5879 5878 5878 5878 5877 5876 5875 5874 5873 5871 5870 5868 5867 5866 5865 5864 5863 5862 5860 5858 5857 5856 5855 5854 5852 5851 5849 5847 5845 5844 5841 5839 5837 5835 5833 5830 5828 5826 5823 5820 5818 5816
5875 5874 5874 5874 5873 5872 5872 5871 5870 5869 5868 5866 5865 5863 5862 5861 5859 5858 5857 5856 5854 5853 5851 5850 5849 5847 5845 5843 5842 5840 5838 5836 5833 5831 5829 5826 5823 5821 5818 5816 5813 5811 5808
5870 5870 5869 5869 5869 5868 5868 5867 5866 5865 5864 5863 5861 5859 5858 5856 5855 5854 5853 5851 5850 5848 5846 5845 5843 5842 5840 5838 5836 5834 5831 5829 5826 5824 5821 5819 5816 5814 5811 5809 5806 5803 5800
5866 5865 5865 5865 5864 5864 5863 5862 5862 5861 5860 5859 5857 5856 5854 5852 5851 5849 5848 5846 5845 5843 5841 5840 5838 5836 5834 5832 5830 5827 5825 5822 5819 5817 5814 5811 5809 5806 5804 5801 5798 5795 5792
5861 5860 5860 5860 5859 5859 5858 5858 5857 5856 5855 5854 5853 5851 5849 5848 5846 5844 5843 5841 5840 5838 5836 5834 5832 5830 5828 5826 5823 5821 5818 5815 5812 5809 5806 5803 5801 5798 5795 5793 5790 5787 5783
5856 5855 5855 5855 5854 5854 5853 5853 5852 5851 5850 5849 5848 5846 5844 5843 5841 5839 5838 5836 5834 5832 5830 5828 5825 5823 5821 5819 5816 5814 5811 5808 5805 5801 5798 5795 5793 5790 5787 5784 5781 5778 5775
5851 5850 5850 5849 5849 5849 5848 5847 5846 5846 5844 5843 5842 5841 5839 5837 5835 5834 5832 5830 5828 5826 5824 5821 5819 5817 5814 5812 5809 5806 5804 5801 5797 5794 5791 5788 5785 5782 5779 5776 5773 5769 5766
5845 5844 5844 5844 5843 5843 5842 5841 5841 5840 5839 5837 5836 5834 5833 5831 5829 5828 5826 5824 5822 5820 5817 5815 5812 5810 5807 5805 5802 5799 5796 5793 5790 5787 5783 5780 5777 5774 5771 5767 5764 5760 5757
5838 5838 5838 5837 5837 5837 5836 5835 5834 5834 5833 5831 5830 5828 5826 5825 5823 5821 5819 5818 5815 5813 5810 5808 5805 5803 5800 5797 5795 5792 5789 5786 5782 5779 5776 5773 5769 5766 5762 5759 5755 5751 5748
5832 5832 5831 5831 5830 5830 5829 5829 5828 5827 5826 5824 5823 5821 5820 5818 5816 5814 5812 5810 5808 5806 5803 5801 5798 5796 5793 5790 5787 5784 5781 5778 5775 5772 5768 5765 5761 5758 5754 5750 5746 5742 5739
5825 5825 5825 5824 5824 5823 5822 5822 5821 5820 5819 5818 5816 5815 5813 5811 5809 5807 5805 5803 5801 5799 5796 5793 5791 5788 5785 5782 5780 5776 5773 5770 5767 5763 5760 5756 5753 5749 5745 5741 5737 5733 5729
5817 5817 5817 5817 5817 5816 5816 5815 5814 5813 5812 5810 5809 5808 5806 5804 5802 5800 5798 5796 5794 5791 5789 5786 5783 5780 5778 5775 5772 5769 5765 5762 5759 5755 5752 5748 5744 5740 5736 5732 5728 5724 5719
5810 5811 5811 5810 5810 5809 5809 5808 5807 5806 5805 5803 5802 5800 5799 5797 5795 5793 5791 5789 5786 5784 5781 5779 5776 5773 5770 5767 5764 5761 5757 5754 5750 5747 5743 5739 5735 5731 5727 5723 5718 5714 5710
5804 5804 5804 5804 5804 5803 5802 5801 5800 5799 5798 5796 5795 5793 5791 5789 5787 5786 5783 5781 5779 5776 5774 5771 5768 5765 5762 5759 5755 5752 5749 5745 5741 5738 5734 5730 5726 5722 5717 5713 5709 5705 5700
5797 5797 5798 5797 5797 5796 5795 5794 5793 5792 5790 5789 5787 5785 5784 5782 5780 5778 5776 5774 5771 5769 5766 5763 5760 5757 5754 5750 5747 5743 5740 5736 5732 5729 5725 5721 5716 5712 5708 5704 5699 5695 5690
5791 5791 5791 5791 5790 5789 5788 5787 5786 5785 5783 5782 5780 5778 5777 5775 5773 5771 5768 5766 5764 5761 5758 5755 5752 5749 5745 5741 5738 5734 5731 5727 5723 5719 5715 5711 5707 5702 5698 5694 5689 5685 5680
5784 5785 5785 5784 5783 5783 5782 5781 5779 5778 5776 5775 5773 5772 5770 5768 5766 5763 5761 5758 5756 5753 5749 5746 5743 5740 5737 5733 5730 5726 5722 5719 5714 5710 5706 5702 5697 5693 5689 5684 5679 5675 5670
5778 5778 5778 5777 5777 5776 5775 5774 5773 5771 5770 5768 5767 5765 5763 5761 5758 5756 5753 5750 5747 5744 5741 5738 5735 5732 5728 5725 5722 5718 5714 5710 5706 5701 5697 5692 5688 5683 5679 5674 5669 5665 5660
5771 5771 5771 5770 5770 5769 5768 5767 5766 5765 5763 5762 5760 5758 5755 5753 5751 5748 5745 5742 5739 5736 5733 5730 5727 5724 5721 5717 5713 5709 5705 5701 5697 5692 5688 5683 5679 5674 5669 5664 5660 5655 5651
5764 5764 5764 5763 5763 5762 5761 5760 5759 5758 5756 5755 5753 5750 5748 5746 5744 5741 5738 5735 5732 5729 5726 5722 5719 5716 5713 5709 5705 5701 5697 5692 5688 5683 5678 5674 5669 5665 5660 5655 5651 5646 5642